sat.trackr.live / text

‹ back to catalog

STARLINK-32961

NORAD 63122 · 2025-039U

PAYLOAD ACTIVE UNKNOWN

§ Identity

Operator
Country
US
Launch date
2025-02-27
Launch site
AFETR
Launch vehicle
Mass (kg)
RCS (m²)

Purposes: comms

External: N2YO · Heavens-Above · Gunter

§ Orbital elements

Epoch: 2026-05-24T20:23:56.734944Z

Period
94.26 min
Inclination
43.0032°
Eccentricity
0.0002885
Mean motion
15.27615965 rev/d
Perigee alt
481.0 km
Apogee alt
484.9 km
Semi-major
6,861.1 km
B*
1.1361e-3
RAAN
302.7447°
Arg perigee
272.9549°
Mean anomaly
87.0972°
Rev number
6,971

§ Raw data

STARLINK-329611 63122U 25039U   26144.84996221  .00031169  00000+0  11361-2 0  99942 63122  43.0032 302.7447 0002885 272.9549  87.0972 15.27615965 69719

JSON: /api/v1/satellites/63122 · /tle

For live sub-satellite position, see the globe view (requires WebGL).

§ Visibility from observer

Set your observer location to see the next 7 days of passes ≥ 10°. The values pass through the URL so the page stays shareable.

No JS? Fill the form by hand. The geolocation button needs JavaScript.